This is the latest recevied weather packets stored in our database for station/object AB4CZ-1. If no packets are shown the sender has not sent any weather packets the latest 1 day(s).
| Time | Temp. | Humidity | Pressure | Rain* | Wind** | Luminosity | Snow |
|---|---|---|---|---|---|---|---|
| 1778071293 | 20.56° C | 84% | 1015.7 hPa | 0 mm | - | - | - |
| 1778070693 | 20.56° C | 84% | 1015.8 hPa | 0 mm | - | - | - |
| 1778068293 | 20° C | 84% | 1015.5 hPa | 0 mm | - | - | - |
| 1778068008 | 20° C | 84% | 1015.5 hPa | 0 mm | - | - | - |
| 1778067693 | 20° C | 84% | 1015.4 hPa | 0 mm | - | - | - |
| 1778067393 | 20° C | 84% | 1015.3 hPa | 0 mm | - | - | - |
| 1778067093 | 20° C | 84% | 1015.1 hPa | 0 mm | - | - | - |
| 1778065604 | 20° C | 83% | 1014.3 hPa | 0 mm | - | - | - |
| 1778063793 | 20° C | 82% | 1013.8 hPa | 0 mm | - | - | - |
| 1778059293 | 20.56° C | 78% | 1012.9 hPa | 0 mm | - | - | - |
| 1778058397 | 20.56° C | 76% | 1012.8 hPa | 0 mm | - | - | - |
| 1778058175 | 20.56° C | 75% | 1012.9 hPa | 0 mm | - | - | - |
| 1778058101 | 20.56° C | 75% | 1012.9 hPa | 0 mm | - | - | - |
| 1778057195 | 20.56° C | 73% | 1013.2 hPa | 0 mm | - | - | - |
| 1778056294 | 20.56° C | 73% | 1013 hPa | 0 mm | - | - | - |
| 1778055996 | 20.56° C | 73% | 1012.9 hPa | 0 mm | - | - | - |
| 1778055102 | 21.11° C | 72% | 1012.9 hPa | 0 mm | - | - | - |
| 1778051196 | 21.11° C | 67% | 1013.6 hPa | 0 mm | - | - | - |
| 1778050106 | 21.67° C | 62% | 1013.7 hPa | 0 mm | - | - | - |
| 1778048795 | 21.67° C | 58% | 1014.2 hPa | 0 mm | - | - | - |
| 1778046700 | 21.67° C | 56% | 1014.1 hPa | 0 mm | - | - | - |
| 1778046570 | 21.67° C | 55% | 1014.1 hPa | 0 mm | - | - | - |
| 1778045793 | 21.67° C | 54% | 1013.9 hPa | 0 mm | - | - | - |
| 1778044433 | 21.67° C | 55% | 1014.1 hPa | 0 mm | - | - | - |
| 1778043995 | 21.67° C | 56% | 1013.9 hPa | 0 mm | - | - | - |
* Rain latest hour (hover to see other rain measurements)
** Current wind speed in m/s (hover to see current wind gust speed)